Location: Crescent
(42.8242°N, 73.7329°W)
Time: 00:30:52
(UTC+00:00)

Tiros 1 - Pass Details

Date: 18 February 2026
Orbit: 618 x 649 km, 48.4° (Epoch: 10 March)

Event Time Altitude Azimuth Distance (km) Brightness Sun altitude
Rises 16:35:52 0° 287° (WNW) 2,900 10.3 35.2°
Reaches altitude 10° 16:38:18 10° 294° (WNW) 1,989 9.5 35.3°
Maximum altitude 16:42:39 42° 6° (N) 887 7.8 35.4°
Drops below altitude 10° 16:46:58 10° 78° (ENE) 1,980 9.7 35.5°
Sets 16:49:22 0° 85° (E) 2,884 10.5 35.5°
